| time (UTC) | temp C | wind direction | speed KPH | gust KPH | rain 1hr cm | rain 24hr cm | rain mn cm | humidity % | barometer mb |
| 20260506023035 | 9 | 276 | 0.0 | 0.0 | 0.00 | 0.23 | 0.03 | 90 | 1006.6 |
| 20260506021541 | 9 | 276 | 0.0 | 0.0 | 0.00 | 0.23 | 0.03 | 90 | 1006.7 |
| 20260506020032 | 9 | 276 | 0.0 | 0.0 | 0.00 | 0.23 | 0.03 | 90 | 1006.8 |
| 20260506014530 | 9 | 276 | 0.0 | 0.0 | 0.00 | 0.23 | 0.03 | 90 | 1007.0 |
| 20260506013033 | 9 | 276 | 0.0 | 0.0 | 0.00 | 0.23 | 0.03 | 90 | 1007.0 |
| 20260506011544 | 9 | 276 | 0.0 | 0.0 | 0.00 | 0.23 | 0.03 | 90 | 1007.3 |
| 20260506010028 | 9 | 276 | 0.0 | 0.0 | 0.00 | 0.23 | 0.03 | 90 | 1007.3 |
| 20260506004536 | 9 | 276 | 0.0 | 0.0 | 0.00 | 0.23 | 0.03 | 90 | 1007.5 |
| 20260506003026 | 9 | 276 | 0.0 | 0.0 | 0.00 | 0.23 | 0.03 | 90 | 1007.6 |
| 20260506001524 | 9 | 276 | 0.0 | 0.0 | 0.00 | 0.23 | 0.03 | 90 | 1007.9 |
| 20260506000022 | 9 | 276 | 0.0 | 0.0 | 0.00 | 0.23 | 0.03 | 90 | 1008.1 |
| 20260505234522 | 9 | 276 | 0.0 | 0.0 | 0.00 | 0.23 | 0.03 | 90 | 1007.9 |
| 20260505233029 | 9 | 276 | 0.0 | 0.0 | 0.00 | 0.23 | 0.03 | 90 | 1008.0 |
| 20260505231522 | 10 | 276 | 0.0 | 0.0 | 0.00 | 0.23 | 0.03 | 90 | 1008.0 |
| 20260505230017 | 10 | 276 | 0.0 | 0.0 | 0.03 | 0.23 | 0.03 | 90 | 1008.2 |
| 20260505224517 | 10 | 276 | 0.0 | 0.0 | 0.05 | 0.23 | 0.03 | 89 | 1008.2 |
| 20260505223019 | 10 | 276 | 0.0 | 0.0 | 0.05 | 0.23 | 0.03 | 89 | 1008.1 |
| 20260505221514 | 10 | 276 | 0.0 | 0.0 | 0.08 | 0.23 | 0.03 | 89 | 1008.2 |
| 20260505220022 | 10 | 276 | 0.0 | 0.0 | 0.05 | 0.23 | 0.00 | 89 | 1008.3 |
| 20260505214524 | 10 | 276 | 0.0 | 0.0 | 0.08 | 0.20 | 0.20 | 89 | 1008.5 |
| 20260505213018 | 10 | 276 | 0.0 | 0.0 | 0.05 | 0.18 | 0.18 | 89 | 1008.6 |
| 20260505211511 | 10 | 276 | 0.0 | 0.0 | 0.05 | 0.15 | 0.15 | 88 | 1008.7 |
| 20260505210010 | 10 | 276 | 0.0 | 0.0 | 0.05 | 0.15 | 0.15 | 88 | 1008.7 |
| 20260505204509 | 10 | 276 | 0.0 | 0.0 | 0.00 | 0.13 | 0.13 | 88 | 1008.6 |
| 20260505203011 | 10 | 276 | 0.0 | 0.0 | 0.00 | 0.13 | 0.13 | 88 | 1008.5 |
| 20260505201509 | 10 | 276 | 0.0 | 0.0 | 0.00 | 0.13 | 0.13 | 88 | 1008.5 |
| 20260505200008 | 10 | 277 | 0.0 | 0.0 | 0.00 | 0.13 | 0.13 | 87 | 1008.2 |
| 20260505194516 | 11 | 277 | 0.0 | 0.0 | 0.00 | 0.13 | 0.13 | 87 | 1007.9 |
| 20260505193009 | 11 | 275 | 0.0 | 0.0 | 0.00 | 0.13 | 0.13 | 87 | 1007.9 |
| 20260505191507 | 11 | 275 | 0.0 | 0.0 | 0.00 | 0.13 | 0.13 | 87 | 1007.9 |
| 20260505190006 | 11 | 284 | 0.0 | 0.0 | 0.00 | 0.13 | 0.13 | 87 | 1007.8 |
| 20260505184506 | 11 | 273 | 0.0 | 0.0 | 0.00 | 0.13 | 0.13 | 88 | 1007.7 |
| 20260505183005 | 11 | 345 | 0.0 | 0.0 | 0.00 | 0.13 | 0.13 | 88 | 1007.8 |
| 20260505181506 | 11 | 271 | 0.0 | 0.0 | 0.00 | 0.13 | 0.13 | 88 | 1007.8 |
| 20260505180004 | 11 | 271 | 0.0 | 0.0 | 0.00 | 0.13 | 0.13 | 87 | 1007.7 |
| 20260505174504 | 11 | 271 | 0.0 | 1.6 | 0.03 | 0.13 | 0.13 | 87 | 1007.9 |
| 20260505173006 | 12 | 277 | 0.0 | 0.0 | 0.08 | 0.13 | 0.13 | 86 | 1007.8 |
| 20260505171503 | 12 | 327 | 0.0 | 0.0 | 0.08 | 0.13 | 0.13 | 86 | 1007.7 |
| 20260505170003 | 12 | 327 | 0.0 | 0.0 | 0.08 | 0.13 | 0.13 | 84 | 1007.6 |
| 20260505164505 | 12 | 327 | 0.0 | 1.6 | 0.05 | 0.10 | 0.10 | 83 | 1007.3 |
| 20260505163003 | 12 | 327 | 0.0 | 3.2 | 0.00 | 0.05 | 0.05 | 80 | 1007.7 |
| 20260505161502 | 13 | 346 | 0.0 | 4.8 | 0.00 | 0.05 | 0.05 | 78 | 1007.7 |
| 20260505153111 | 16 | 14 | 0.0 | 9.7 | 0.00 | 0.05 | 0.05 | 70 | 1006.8 |
| 20260505151559 | 16 | 265 | 0.0 | 4.8 | 0.00 | 0.05 | 0.05 | 67 | 1006.6 |
| 20260505124539 | 16 | 30 | 0.0 | 3.2 | 0.00 | 0.05 | 0.05 | 76 | 1006.7 |
| 20260505123029 | 16 | 350 | 0.0 | 1.6 | 0.00 | 0.05 | 0.05 | 76 | 1006.7 |
| 20260505121526 | 16 | 327 | 0.0 | 3.2 | 0.00 | 0.05 | 0.05 | 76 | 1006.9 |
| 20260505120028 | 16 | 22 | 0.0 | 0.0 | 0.00 | 0.05 | 0.05 | 79 | 1006.9 |
| 20260505114519 | 15 | 360 | 0.0 | 0.0 | 0.00 | 0.05 | 0.05 | 82 | 1006.9 |
| 20260505113015 | 14 | 9 | 0.0 | 0.0 | 0.00 | 0.05 | 0.05 | 86 | 1006.9 |
| 20260505111511 | 13 | 5 | 0.0 | 0.0 | 0.00 | 0.05 | 0.05 | 87 | 1007.0 |
| 20260505101601 | 11 | 271 | 0.0 | 0.0 | 0.03 | 0.05 | 0.05 | 88 | 1007.3 |
| 20260505100059 | 11 | 271 | 0.0 | 0.0 | 0.05 | 0.05 | 0.05 | 89 | 1007.3 |
| 20260505094554 | 11 | 271 | 0.0 | 1.6 | 0.05 | 0.05 | 0.05 | 89 | 1007.2 |
| 20260505093059 | 11 | 271 | 0.0 | 0.0 | 0.03 | 0.03 | 0.03 | 89 | 1007.3 |
| 20260505091552 | 11 | 271 | 0.0 | 0.0 | 0.03 | 0.03 | 0.03 | 88 | 1007.2 |
| 20260505090046 | 11 | 271 | 0.0 | 0.0 | 0.00 | 0.00 | 0.00 | 87 | 1007.2 |
| 20260505084547 | 11 | 271 | 0.0 | 0.0 | 0.00 | 0.00 | 0.00 | 87 | 1007.5 |
| 20260505083047 | 11 | 271 | 0.0 | 0.0 | 0.00 | 0.00 | 0.00 | 86 | 1007.6 |
| 20260505081534 | 11 | 271 | 0.0 | 0.0 | 0.00 | 0.00 | 0.00 | 86 | 1007.7 |
| 20260505080035 | 11 | 273 | 0.0 | 0.0 | 0.00 | 0.00 | 0.00 | 86 | 1007.7 |
| 20260505074530 | 10 | 272 | 0.0 | 3.2 | 0.00 | 0.00 | 0.00 | 86 | 1007.9 |
| 20260505073030 | 10 | 273 | 0.0 | 0.0 | 0.00 | 0.00 | 0.00 | 87 | 1008.2 |
| 20260505071525 | 10 | 273 | 0.0 | 0.0 | 0.00 | 0.00 | 0.00 | 87 | 1008.3 |
| 20260505070023 | 10 | 273 | 0.0 | 0.0 | 0.00 | 0.00 | 0.00 | 87 | 1008.3 |
| 20260505064521 | 10 | 273 | 0.0 | 0.0 | 0.00 | 0.00 | 0.00 | 88 | 1008.4 |
| 20260505063027 | 10 | 273 | 0.0 | 0.0 | 0.00 | 0.00 | 0.00 | 88 | 1008.4 |
| 20260505061520 | 9 | 273 | 0.0 | 0.0 | 0.00 | 0.00 | 0.00 | 89 | 1008.4 |
| 20260505060014 | 9 | 273 | 0.0 | 0.0 | 0.00 | 0.00 | 0.00 | 89 | 1008.4 |
| 20260505054513 | 8 | 273 | 0.0 | 0.0 | 0.00 | 0.00 | 0.00 | 89 | 1008.4 |
| 20260505053018 | 8 | 273 | 0.0 | 0.0 | 0.00 | 0.00 | 0.00 | 89 | 1008.2 |
| 20260505051516 | 8 | 273 | 0.0 | 0.0 | 0.00 | 0.00 | 0.00 | 89 | 1008.1 |
| 20260505041504 | 8 | 273 | 0.0 | 0.0 | 0.00 | 0.00 | 0.00 | 89 | 1008.3 |
| 20260505040001 | 8 | 273 | 0.0 | 0.0 | 0.00 | 0.00 | 0.00 | 89 | 1008.1 |
| 20260505034618 | 8 | 273 | 0.0 | 0.0 | 0.00 | 0.00 | 0.00 | 89 | 1008.2 |
| 20260505033058 | 8 | 273 | 0.0 | 0.0 | 0.00 | 0.00 | 0.00 | 89 | 1008.3 |
| 20260505031557 | 8 | 273 | 0.0 | 0.0 | 0.00 | 0.00 | 0.00 | 88 | 1008.5 |
| 20260505030055 | 8 | 273 | 0.0 | 0.0 | 0.00 | 0.00 | 0.00 | 88 | 1008.6 |
| 20260505024553 | 8 | 273 | 0.0 | 0.0 | 0.00 | 0.00 | 0.00 | 88 | 1008.7 |